#timestamp,LO_Frequency,Hit,StdDev 
1501297215.1,286047002.8,N,1.2
1501297235.9,286047004.0,P,1.3
1501297255.7,286047001.2,N,1.3
1501297275.6,286047000.8,N,1.3
1501297295.4,286047001.9,N,1.1
1501297315.2,286047002.3,N,1.0
1501297335.1,286047002.4,N,1.0
1501297336.0,286047002.4,N,0.9
1501297355.8,286047002.7,N,0.9
1501297375.7,286047000.2,N,1.0
1501297395.5,286047002.8,N,1.0
1501297415.3,286046999.9,N,1.1
1501297435.2,286047000.9,N,1.1
1501297455.0,286047000.0,N,1.2
1501297455.9,286047000.0,N,1.2
1501297475.7,286047000.2,N,1.2
1501297495.6,286047002.5,N,1.2
1501297515.4,286047002.2,N,1.2
1501297535.3,286047002.2,N,1.1
1501297555.1,286047002.8,N,1.2
1501297556.0,286047002.8,N,1.2
1501297575.8,286047002.3,N,1.1
1501297595.7,286047002.8,N,1.1
1501297615.5,286047000.1,N,1.2
1501297635.4,286047002.7,N,1.1
1501297655.2,286047002.1,N,1.1
1501297675.0,286047001.4,N,1.1
1501297675.9,286047001.4,N,1.1
1501297695.8,286047000.6,N,1.1
1501297715.6,286047000.6,N,1.1
1501297735.5,286047000.5,N,1.1
1501297755.3,286047000.0,N,1.1
1501297775.1,286047002.2,N,1.1
1501297795.9,286047002.3,N,1.1
1501297815.7,286047000.1,N,1.1
1501297835.5,286047000.6,N,1.1
1501297855.4,286047000.0,N,1.1
1501297875.2,286047000.4,N,1.1
1501297895.1,286047000.7,N,1.1
1501297896.0,286047000.7,N,1.1
1501297915.8,286047000.5,N,1.0
1501297935.6,286046999.8,N,1.0
1501297955.5,286047002.4,N,1.1
1501297975.3,286046998.2,N,1.2
1501297995.2,286046998.2,N,1.3
1501298015.9,286047000.1,N,1.3
1501298035.7,286046999.9,N,1.3
1501298055.6,286046999.9,N,1.3
1501298075.4,286047001.1,N,1.2
1501298095.3,286047000.4,N,1.2
1501298115.1,286047002.4,N,1.2
1501298116.0,286047002.4,N,1.2
1501298135.8,286047002.6,N,1.2
1501298155.7,286047002.6,N,1.2
1501298175.5,286047002.7,N,1.2
1501298195.4,286047001.6,N,1.2
1501298215.2,286047002.5,N,1.2
1501298235.0,286047001.8,N,1.2
1501298235.9,286047001.8,N,1.2
1501298255.8,286047001.7,N,1.2
1501298275.6,286047002.8,N,1.3
1501298295.5,286047002.7,N,1.3
1501298315.3,286047002.2,N,1.3
1501298335.1,286046999.7,N,1.3
1501298355.9,286046999.8,N,1.3
1501298375.7,286047002.5,N,1.3
1501298395.6,286047002.8,N,1.3
1501298415.4,286047001.0,N,1.3
1501298435.2,286047000.5,N,1.3
1501298455.1,286046999.8,N,1.4
1501298456.0,286046999.8,N,1.4
1501298475.8,286047000.0,N,1.4
1501298495.7,286047000.0,N,1.4
1501298515.5,286046999.8,N,1.3
1501298535.3,286046998.1,N,1.3
1501298555.2,286046998.6,N,1.4
1501298575.0,286047000.8,N,1.3
1501298575.9,286047000.8,N,1.3
1501298595.7,286047000.5,N,1.3
1501298615.6,286047000.0,N,1.3
1501298635.4,286047001.2,N,1.3
1501298655.3,286046998.5,N,1.4
1501298675.1,286047001.2,N,1.3
1501298695.8,286046998.9,N,1.4
1501298715.7,286046998.1,N,1.4
1501298735.5,286046998.2,N,1.4
1501298755.4,286046998.3,N,1.5
1501298775.2,286046998.7,N,1.5
1501298795.0,286046998.8,N,1.5
1501298795.9,286046998.8,N,1.4
1501298815.8,286046998.8,N,1.4
1501298835.6,286046999.6,N,1.3
1501298855.5,286046999.6,N,1.2
1501298875.3,286046999.3,N,1.2
1501298895.1,286046996.7,N,1.3
1501298915.9,286046997.0,N,1.3
1501298935.7,286046999.4,N,1.1
1501298955.6,286046996.6,N,1.2
1501298975.4,286046996.5,N,1.3
1501298995.2,286046997.3,N,1.3
1501299015.1,286046997.2,N,1.3
1501299016.0,286046997.2,N,1.4
1501299035.8,286046998.0,N,1.3
1501299055.7,286046995.2,P,1.8
1501299075.5,286046997.4,N,1.5
1501299095.3,286046997.7,N,1.3
1501299115.2,286046995.3,P,1.0
1501299135.0,286046998.9,N,1.5
1501299135.9,286046998.9,N,1.5
1501299155.8,286046998.7,N,1.4
1501299175.6,286046998.4,N,1.3
1501299195.5,286046998.8,N,1.2
1501299215.3,286046999.2,N,1.2
1501299235.1,286046998.7,N,1.2
1501299255.9,286046999.3,N,1.1
1501299275.7,286046998.4,N,1.1
1501299295.6,286046999.6,N,1.1
1501299315.4,286046996.5,P,1.0
1501299335.2,286046998.5,N,0.9
1501299355.1,286046998.3,N,0.8
1501299356.0,286046998.3,N,0.8
1501299375.8,286047000.8,N,1.2
1501299395.7,286046998.7,N,1.2
1501299415.5,286046998.9,N,1.1
1501299435.3,286046998.2,N,1.0
1501299455.2,286046998.3,N,1.0
1501299475.0,286046998.8,N,0.9
1501299475.9,286046998.8,N,0.9
1501299495.8,286046999.1,N,0.9
1501299515.6,286047001.2,N,1.1
1501299535.4,286046998.5,N,1.1
1501299555.3,286046999.0,N,1.0
1501299575.1,286046998.9,N,1.0
1501299595.8,286046999.1,N,1.0
1501299615.7,286046999.1,N,0.9
1501299635.5,286046997.6,N,1.0
1501299655.4,286046997.3,N,1.0
1501299675.2,286046999.5,N,1.0
1501299695.0,286046997.0,P,0.9
1501299696.0,286046997.0,P,0.8
1501299715.8,286046999.6,N,1.1
1501299735.6,286046998.9,N,1.1
1501299755.5,286046998.2,N,1.0
1501299775.3,286046998.1,N,0.9
1501299795.1,286047000.8,N,1.2
1501299815.9,286047001.0,N,1.4
1501299835.7,286046998.2,N,1.3
1501299855.6,286046999.4,N,1.3
1501299875.4,286046998.9,N,1.2
1501299895.2,286046996.6,N,1.3
1501299915.1,286046999.2,N,1.3
1501299916.0,286046999.2,P,0.3
1501299935.8,286047000.8,P,0.9
1501299955.7,286047001.2,N,1.1
1501299975.5,286047001.0,N,1.0
1501299995.4,286047001.2,N,1.0
1501300015.2,286046998.2,N,1.2
1501300035.0,286046998.9,N,1.2
1501300035.9,286046998.9,N,1.2
1501300055.8,286047001.1,N,1.2
1501300075.6,286047001.1,N,1.2
1501300095.5,286046999.0,N,1.2
1501300115.3,286046998.6,N,1.2
1501300135.1,286047000.8,N,1.1
1501300155.9,286047000.3,N,1.1
1501300175.7,286046998.2,N,1.2
1501300195.6,286047000.5,N,1.1
1501300215.4,286047001.0,N,1.1
1501300235.2,286047000.1,N,1.1
1501300255.1,286047000.7,N,1.1
1501300256.0,286047000.7,N,1.1
1501300275.8,286046999.8,N,1.0
1501300295.6,286047002.7,N,1.2
1501300315.5,286046999.8,N,1.1
1501300335.3,286046999.8,N,1.1
1501300355.2,286047001.8,N,1.1
1501300375.9,286047002.8,N,1.2
1501300395.7,286047000.1,N,1.2
1501300415.6,286046999.9,N,1.2
1501300435.4,286047000.4,N,1.2
1501300455.3,286047002.4,N,1.2
1501300475.1,286047000.2,N,1.2
1501300476.0,286047000.2,N,1.2
1501300495.8,286047002.8,N,1.2
1501300515.7,286047002.0,N,1.3
1501300535.5,286047001.4,N,1.3
1501300555.4,286047002.4,N,1.2
1501300575.2,286047001.7,N,1.2
1501300595.0,286047002.6,N,1.2
1501300595.9,286047002.6,N,1.3
1501300615.8,286047002.3,N,1.3
1501300635.6,286046999.8,N,1.3
1501300655.4,286047002.0,N,1.2
1501300675.3,286047002.5,N,1.2
1501300695.1,286047003.8,P,1.3
1501300715.9,286047002.2,N,1.1
1501300735.7,286047001.8,N,1.0
1501300755.5,286047001.9,N,0.9
1501300775.4,286047004.0,P,0.9
1501300795.2,286046998.3,N,2.4
